TITAN 3C TRANSTAGE DEB, 38699

Orbit data source: Space-Track

TITAN 3C TRANSTAGE DEB, 38699 is space debris in GEO originally from a launch on Thu, 26 Sep 1968 UTC launched from the Air Force Eastern Test Range (AFETR). Debris objects in space refer to the collection of defunct objects orbiting the Earth. Examples of debris include non-operational satellites, rocket bodies, and fragments generated from explosions, collisions, or faulty payload assembly.

Loading next visibility...
Identifier
38699, 1968-081Z
Orbit
GEO
Country
Flag of USUS
Related business
Manufacturer
Unknown
Mission
Spacecraft
Bus & Motor
Unknown
Mass
Unknown
Launch date (UTC)
1968-09-26 (57 years ago)
Launch vehicle
Unknown
Launch site
Air Force Eastern Test Range (AFETR)
Object type
Payload
Rocket body
Debris
Shape & HBR
Unknown shape, 1.1 m
Radar Cross Section
Small (<0.1 m²)

Expand to show TLE details & history
Last TLE update: 2 days ago

TLE from 2 days ago
0 TITAN 3C TRANSTAGE DEB
1 38699U 68081Z   26061.11617529 -.00000131  00000-0  00000-0 0  9991
2 38699   1.7483  39.3860 0100649 299.5340 103.0382  1.00859025 50788
Epoch: 2026-03-02T02:47Z
TLE epoch observation values (Epoch: 2026-03-02T02:47:17.545Z)
Latitude
1.18833°
Longitude
-118.63219°
Altitude
35,722.579 km
Speed
3.073 km/s
True Right ascension
05h 32m 25s
True Declination
1° 11' 14"
Sunlit
Object was in daylight at epoch
Visualization orbit readout
Latitude
Unknown
Longitude
Unknown
Altitude
Unknown
Speed
Unknown
Apparent Right ascension
Unknown
Apparent Declination
Unknown
Sunlit
N/A
Visualization observer readout
Local Sidereal Time
02:02:12
Azimuth
Unknown
Elevation
Unknown
Doppler factor
Unknown
Orbital elements
Apogee altitude
36,046.588 km
Perigee altitude
35,201.097 km
Semi-major axis
42,001.98 km
Eccentricity
0.01006
Inclination
1.7483°
RAAN
39.386°
Arg. of periapsis
299.534°
True anomaly
104.15857°
Mean anomaly
103.0382°
Eccentric anomaly
103.59871°
Mean motion
0.25214 °/min
Orbital period
1,427.79 mins
BSTAR
0
Loading maneuver chart data...
Computing Atmospheric mass density...

Documentation

Showing up to 5 results
|